When you browse on this site, cookies collect data to enhance your experience and personalize the content and advertising you see.
Visit our Privacy Policy to learn more. By continuing to use the site, you agree to this use of cookies and data.

Hourly Weather Shaki

Today, 8 August, Saturday

Time Temperature Precipitation Wind Pressure Humidity
00:00 +27°C° 0 mm 2 mps 734 mmHg 48%
01:00 +26°C° 0 mm 2 mps 734 mmHg 49%
02:00 +26°C° 0 mm 1 mps 734 mmHg 50%
03:00 +26°C° 0 mm 1 mps 734 mmHg 52%
04:00 +26°C° 0 mm 1 mps 734 mmHg 52%
05:00 +26°C° 0 mm 1 mps 734 mmHg 52%
06:00 +26°C° 0 mm 1 mps 734 mmHg 52%
07:00 +28°C° 0 mm 1 mps 734 mmHg 48%
08:00 +29°C° 0 mm 1 mps 733 mmHg 43%
09:00 +31°C° 0 mm 1 mps 733 mmHg 38%
10:00 +32°C° 0 mm 1 mps 733 mmHg 36%
11:00 +34°C° 0 mm 2 mps 733 mmHg 34%
12:00 +35°C° 0 mm 2 mps 732 mmHg 32%
13:00 +35°C° 0 mm 2 mps 732 mmHg 31%
14:00 +35°C° 0 mm 2 mps 731 mmHg 30%
15:00 +36°C° 0 mm 2 mps 731 mmHg 30%
16:00 +35°C° 0 mm 2 mps 731 mmHg 31%
17:00 +35°C° 0 mm 2 mps 730 mmHg 33%
18:00 +33°C° 0 mm 1 mps 730 mmHg 34%
19:00 +32°C° 0 mm 2 mps 730 mmHg 36%
20:00 +30°C° 0 mm 2 mps 731 mmHg 38%
21:00 +29°C° 0 mm 2 mps 731 mmHg 40%
22:00 +28°C° 0 mm 2 mps 731 mmHg 42%
23:00 +27°C° 0 mm 3 mps 731 mmHg 43%

Tomorrow, 9 August, Sunday

Time Temperature Precipitation Wind Pressure Humidity
00:00 +27°C° 0 mm 3 mps 731 mmHg 44%
01:00 +26°C° 0 mm 3 mps 730 mmHg 44%
02:00 +26°C° 0 mm 2 mps 730 mmHg 45%
03:00 +26°C° 0 mm 2 mps 730 mmHg 45%
04:00 +26°C° 0 mm 2 mps 730 mmHg 45%
05:00 +26°C° 0 mm 1 mps 730 mmHg 46%
06:00 +26°C° 0 mm 1 mps 730 mmHg 46%
07:00 +28°C° 0 mm 1 mps 730 mmHg 41%
08:00 +30°C° 0 mm 1 mps 730 mmHg 36%
09:00 +32°C° 0 mm 1 mps 730 mmHg 32%
10:00 +34°C° 0 mm 2 mps 730 mmHg 30%
11:00 +35°C° 0 mm 2 mps 729 mmHg 28%
12:00 +36°C° 0 mm 3 mps 729 mmHg 27%
13:00 +36°C° 0 mm 3 mps 729 mmHg 26%
14:00 +37°C° 0 mm 3 mps 729 mmHg 24%
15:00 +37°C° 0 mm 2 mps 728 mmHg 23%
16:00 +36°C° 0 mm 2 mps 728 mmHg 25%
17:00 +36°C° 0 mm 2 mps 728 mmHg 27%
18:00 +34°C° 0 mm 1 mps 728 mmHg 28%
19:00 +32°C° 0 mm 2 mps 729 mmHg 31%
20:00 +30°C° 0 mm 3 mps 729 mmHg 34%
21:00 +28°C° 0 mm 4 mps 729 mmHg 37%
22:00 +28°C° 0 mm 4 mps 730 mmHg 39%
23:00 +27°C° 0 mm 3 mps 730 mmHg 41%

Day after tomorrow, 10 August, Monday

Time Temperature Precipitation Wind Pressure Humidity
00:00 +27°C° 0 mm 3 mps 730 mmHg 42%
01:00 +26°C° 0 mm 2 mps 730 mmHg 43%
02:00 +26°C° 0 mm 2 mps 730 mmHg 44%
03:00 +26°C° 0 mm 2 mps 730 mmHg 45%
04:00 +26°C° 0 mm 1 mps 730 mmHg 46%
05:00 +26°C° 0 mm 1 mps 730 mmHg 47%
06:00 +26°C° 0 mm 1 mps 731 mmHg 48%
07:00 +28°C° 0 mm 1 mps 731 mmHg 44%
08:00 +29°C° 0 mm 2 mps 731 mmHg 39%
09:00 +31°C° 0 mm 3 mps 731 mmHg 35%
10:00 +33°C° 0 mm 4 mps 731 mmHg 33%
11:00 +34°C° 0 mm 4 mps 730 mmHg 31%
12:00 +36°C° 0 mm 5 mps 730 mmHg 28%
13:00 +36°C° 0 mm 5 mps 730 mmHg 27%
14:00 +37°C° 0 mm 5 mps 730 mmHg 26%
15:00 +37°C° 0 mm 5 mps 730 mmHg 25%
16:00 +36°C° 0 mm 5 mps 730 mmHg 28%
17:00 +35°C° 0 mm 5 mps 730 mmHg 31%
18:00 +34°C° 0 mm 5 mps 730 mmHg 34%
19:00 +32°C° 0 mm 5 mps 730 mmHg 38%
20:00 +29°C° 0 mm 4 mps 730 mmHg 41%
21:00 +27°C° 0 mm 4 mps 731 mmHg 44%
22:00 +27°C° 0 mm 3 mps 731 mmHg 46%
23:00 +26°C° 0 mm 3 mps 731 mmHg 48%

11 August, Tuesday

Time Temperature Precipitation Wind Pressure Humidity
00:00 +25°C° 0 mm 2 mps 731 mmHg 50%
01:00 +25°C° 0 mm 2 mps 731 mmHg 53%
02:00 +24°C° 0 mm 1 mps 731 mmHg 55%
03:00 +24°C° 0 mm 1 mps 731 mmHg 57%
04:00 +24°C° 0 mm 1 mps 731 mmHg 58%
05:00 +25°C° 0 mm 1 mps 731 mmHg 59%
06:00 +25°C° 0 mm 1 mps 731 mmHg 60%
07:00 +26°C° 0 mm 1 mps 731 mmHg 56%
08:00 +28°C° 0 mm 2 mps 731 mmHg 51%
09:00 +29°C° 0 mm 2 mps 731 mmHg 47%
10:00 +30°C° 0 mm 3 mps 731 mmHg 44%
11:00 +31°C° 0 mm 3 mps 731 mmHg 41%
12:00 +33°C° 0 mm 3 mps 730 mmHg 38%
13:00 +34°C° 0 mm 3 mps 730 mmHg 36%
14:00 +35°C° 0 mm 3 mps 730 mmHg 34%
15:00 +35°C° 0 mm 3 mps 730 mmHg 32%
16:00 +35°C° 0 mm 3 mps 730 mmHg 33%
17:00 +34°C° 0 mm 3 mps 730 mmHg 35%
18:00 +34°C° 0 mm 2 mps 730 mmHg 36%
19:00 +31°C° 0 mm 2 mps 730 mmHg 39%
20:00 +29°C° 0 mm 2 mps 730 mmHg 42%
21:00 +28°C° 0 mm 2 mps 731 mmHg 44%
22:00 +27°C° 0 mm 2 mps 731 mmHg 46%
23:00 +26°C° 0 mm 2 mps 731 mmHg 47%

12 August, Wednesday

Time Temperature Precipitation Wind Pressure Humidity
00:00 +26°C° 0 mm 2 mps 731 mmHg 49%
01:00 +25°C° 0 mm 2 mps 731 mmHg 49%
02:00 +25°C° 0 mm 1 mps 731 mmHg 50%
03:00 +25°C° 0 mm 1 mps 730 mmHg 50%
04:00 +25°C° 0 mm 1 mps 731 mmHg 50%
05:00 +25°C° 0 mm 1 mps 731 mmHg 51%
06:00 +25°C° 0 mm 1 mps 731 mmHg 51%
07:00 +27°C° 0 mm 1 mps 731 mmHg 46%
08:00 +29°C° 0 mm 2 mps 731 mmHg 41%
09:00 +31°C° 0 mm 2 mps 731 mmHg 36%
10:00 +32°C° 0 mm 2 mps 731 mmHg 34%
11:00 +34°C° 0 mm 3 mps 731 mmHg 32%
12:00 +35°C° 0 mm 3 mps 731 mmHg 31%
13:00 +35°C° 0 mm 3 mps 730 mmHg 30%
14:00 +36°C° 0 mm 3 mps 730 mmHg 29%
15:00 +36°C° 0 mm 2 mps 730 mmHg 28%
16:00 +35°C° 0 mm 2 mps 730 mmHg 30%
17:00 +35°C° 0 mm 2 mps 730 mmHg 31%
18:00 +34°C° 0 mm 2 mps 730 mmHg 33%
19:00 +32°C° 0 mm 2 mps 731 mmHg 35%
20:00 +30°C° 0 mm 2 mps 731 mmHg 37%
21:00 +28°C° 0 mm 3 mps 731 mmHg 39%
22:00 +28°C° 0 mm 2 mps 731 mmHg 41%
23:00 +27°C° 0 mm 2 mps 731 mmHg 42%

13 August, Thursday

Time Temperature Precipitation Wind Pressure Humidity
00:00 +26°C° 0 mm 2 mps 731 mmHg 44%
01:00 +26°C° 0 mm 2 mps 731 mmHg 44%
02:00 +25°C° 0 mm 2 mps 731 mmHg 45%
03:00 +25°C° 0 mm 1 mps 731 mmHg 46%
04:00 +25°C° 0 mm 1 mps 731 mmHg 46%
05:00 +26°C° 0 mm 2 mps 731 mmHg 46%
06:00 +26°C° 0 mm 2 mps 731 mmHg 46%
07:00 +28°C° 0 mm 2 mps 731 mmHg 42%
08:00 +29°C° 0 mm 2 mps 731 mmHg 38%
09:00 +31°C° 0 mm 2 mps 730 mmHg 35%
10:00 +32°C° 0 mm 2 mps 730 mmHg 33%
11:00 +34°C° 0 mm 3 mps 730 mmHg 32%
12:00 +35°C° 0 mm 3 mps 730 mmHg 30%
13:00 +35°C° 0 mm 3 mps 729 mmHg 30%
14:00 +35°C° 0 mm 3 mps 729 mmHg 29%
15:00 +36°C° 0 mm 3 mps 728 mmHg 29%
16:00 +35°C° 0 mm 2 mps 728 mmHg 31%
17:00 +35°C° 0 mm 2 mps 728 mmHg 33%
18:00 +33°C° 0 mm 1 mps 729 mmHg 34%
19:00 +31°C° 0 mm 1 mps 729 mmHg 37%
20:00 +30°C° 0 mm 1 mps 730 mmHg 40%
21:00 +28°C° 0 mm 1 mps 730 mmHg 42%
22:00 +28°C° 0 mm 1 mps 730 mmHg 43%
23:00 +27°C° 0 mm 2 mps 730 mmHg 44%
Show more